Lamar, CO

7:22 AM MDT on March 23, 2017 (GMT -0600)
Lamar Municipal

Weather History for KLAA - March, 2012

Change the Weather History Date:

Sunday, March 11, 2012

  Actual Average Record
Temperature  
Mean Temperature 40 °F 41 °F  
Max Temperature 50 °F 57 °F 92 °F (1989)
Min Temperature 30 °F 25 °F -26 °F (1948)
Degree Days  
Heating Degree Days 25 24  
Month to date heating degree days 257 285  
Since 1 July heating degree days 4435 4596  
Cooling Degree Days 0 0  
Month to date cooling degree days 0 0  
Year to date cooling degree days 0 0  
Moisture  
Dew Point 34 °F    
Average Humidity 76    
Maximum Humidity 100    
Minimum Humidity 52    
Precipitation  
Precipitation 0.00 in 0.03 in 0.75 in (1927)
Month to date precipitation 0.14  
Year to date precipitation 0.34  
Snow  
Snow 0.00 in - - ()
Month to date snowfall 0.0  
Snow Depth 0.00 in    
Sea Level Pressure  
Sea Level Pressure 29.75 in    
Wind  
Wind Speed 7 mph (SE)    
Max Wind Speed 16 mph    
Max Gust Speed 20 mph    
Visibility 10 miles    
Events      
T = Trace of Precipitation, MM = Missing Value Source: NWS Daily Summary

Daily Weather History Graph

Daily Weather History Graph

Search for Another Location

Airport or City:

Trip Planner

Search our weather history database for the weather conditions in past years. The results will help you decide how hot, cold, wet, or windy it might be!

Date:

Astronomy

Mar. 11, 2012 Rise Set
Actual Time 7:07 AM MDT 6:54 PM MDT
Civil Twilight 6:40 AM MDT 7:20 PM MDT
Nautical Twilight 6:10 AM MDT 7:51 PM MDT
Astronomical Twilight 5:39 AM MDT 8:22 PM MDT
Moon 11:15 PM MDT (3/11) 8:49 AM MDT (3/11)
Length of Visible Light 12h 40m
Length of Day
11h 47m
Waning Gibbous, 85% of the Moon is Illuminated
Mar 11
Waning Gibbous
Mar 14
Last Quarter
Mar 22
New
Mar 30
First Quarter
Apr 6
Full

Hourly Weather History & Observations

Time (MDT) Temp. Windchill Dew Point Humidity Pressure Visibility Wind Dir Wind Speed Gust Speed Precip Events Conditions
12:49 AM 37.4 °F 30.3 °F 35.6 °F 93% 29.89 in 10.0 mi South 10.4 mph - N/A   Scattered Clouds
12:53 AM 37.9 °F 31.5 °F 35.1 °F 89% 29.84 in 10.0 mi South 9.2 mph - N/A   Scattered Clouds
1:06 AM 37.4 °F 31.4 °F 35.6 °F 93% 29.88 in 10.0 mi SSE 8.1 mph - N/A   Mostly Cloudy
1:53 AM 39.0 °F 34.8 °F 35.1 °F 86% 29.81 in 10.0 mi ESE 5.8 mph - N/A   Overcast
3:45 AM 35.6 °F 30.7 °F 33.8 °F 93% 29.83 in 10.0 mi ESE 5.8 mph - N/A   Scattered Clouds
3:53 AM 37.0 °F 31.6 °F 34.0 °F 89% 29.80 in 10.0 mi SE 6.9 mph - N/A   Mostly Cloudy
4:26 AM 35.6 °F 29.2 °F 33.8 °F 93% 29.83 in 10.0 mi SE 8.1 mph - N/A   Scattered Clouds
4:53 AM 35.1 °F 29.3 °F 33.1 °F 92% 29.81 in 10.0 mi ESE 6.9 mph - N/A   Clear
6:53 AM 34.0 °F 27.2 °F 30.9 °F 89% 29.78 in 10.0 mi South 8.1 mph - N/A   Partly Cloudy
7:09 AM 35.6 °F 29.2 °F 33.8 °F 93% 29.78 in 10.0 mi South 8.1 mph - N/A   Mostly Cloudy
7:53 AM 37.9 °F 32.7 °F 34.0 °F 86% 29.77 in 10.0 mi SSE 6.9 mph - N/A   Overcast
8:12 AM 37.4 °F 29.8 °F 33.8 °F 87% 29.76 in 10.0 mi South 11.5 mph - N/A   Overcast
8:53 AM 39.0 °F 30.6 °F 33.1 °F 79% 29.77 in 10.0 mi South 15.0 mph - N/A   Overcast
9:53 AM 39.9 °F 32.1 °F 34.0 °F 79% 29.77 in 10.0 mi South 13.8 mph - N/A   Overcast
10:49 AM 42.8 °F 37.0 °F 33.8 °F 70% 29.77 in 10.0 mi SE 10.4 mph - N/A   Overcast
10:53 AM 42.1 °F 36.1 °F 34.0 °F 73% 29.76 in 10.0 mi SE 10.4 mph - N/A   Overcast
12:53 PM 46.0 °F 41.4 °F 35.1 °F 66% 29.72 in 10.0 mi East 9.2 mph - N/A   Partly Cloudy
1:53 PM 46.0 °F 43.1 °F 34.0 °F 63% 29.70 in 10.0 mi ENE 5.8 mph - N/A   Overcast
2:53 PM 48.0 °F - 34.0 °F 58% 29.68 in 10.0 mi NNE 8.1 mph - N/A   Mostly Cloudy
3:53 PM 50.0 °F - 33.1 °F 52% 29.66 in 10.0 mi Calm Calm - N/A   Clear
4:53 PM 48.9 °F - 33.1 °F 54% 29.65 in 10.0 mi East 3.5 mph - N/A   Clear
5:53 PM 50.0 °F - 33.1 °F 52% 29.64 in 10.0 mi SSE 5.8 mph - N/A   Partly Cloudy
6:53 PM 46.0 °F 43.1 °F 35.1 °F 66% 29.66 in 10.0 mi ESE 5.8 mph - N/A   Clear
7:53 PM 41.0 °F 36.4 °F 35.1 °F 79% 29.66 in 10.0 mi East 6.9 mph - N/A   Clear
8:53 PM 37.9 °F 34.4 °F 35.1 °F 89% 29.68 in 10.0 mi ENE 4.6 mph - N/A   Clear
9:53 PM 37.9 °F - 35.1 °F 89% 29.67 in 10.0 mi Calm Calm - N/A   Clear
10:53 PM 36.0 °F 32.1 °F 33.1 °F 89% 29.68 in 10.0 mi West 4.6 mph - N/A   Clear
11:53 PM 30.9 °F 25.2 °F 30.0 °F 96% 29.70 in 10.0 mi SW 5.8 mph - N/A   Clear
12:53 AM 34.0 °F 31.0 °F 32.0 °F 92% 29.72 in 10.0 mi West 3.5 mph - N/A   Clear